Barking Sands, HI

8:17 AM HST on October 20, 2017 (GMT -1000)
Barking Sands PMRF

Weather History for PHBK - December, 2013

Change the Weather History Date:

Friday, December 20, 2013

  Actual Average Record
Temperature  
Mean Temperature 74 °F -  
Max Temperature 82 °F 80 °F 84 °F (1971)
Min Temperature 66 °F 61 °F 58 °F (1973)
Cooling Degree Days 9    
Growing Degree Days 24 (Base 50)    
Moisture  
Dew Point 66 °F    
Average Humidity 74    
Maximum Humidity 90    
Minimum Humidity 64    
Precipitation  
Precipitation 0.00 in - - ()
Sea Level Pressure  
Sea Level Pressure 30.01 in    
Wind  
Wind Speed 4 mph (North)    
Max Wind Speed 8 mph    
Max Gust Speed -    
Visibility 8 miles    
Events      
Averages and records for this station are not official NWS values.
T = Trace of Precipitation, MM = Missing Value Source: NWS Daily Summary

Daily Weather History Graph

Daily Weather History Graph

Search for Another Location

Airport or City:

Trip Planner

Search our weather history database for the weather conditions in past years. The results will help you decide how hot, cold, wet, or windy it might be!

Date:

Astronomy

Dec. 20, 2013 Rise Set
Actual Time 7:13 AM HST 6:00 PM HST
Civil Twilight 6:49 AM HST 6:25 PM HST
Nautical Twilight 6:21 AM HST 6:52 PM HST
Astronomical Twilight 5:53 AM HST 7:20 PM HST
Moon 9:10 PM HST 9:32 AM HST
Length of Visible Light 11h 36m
Length of Day
10h 47m
Waning Gibbous, 89% of the Moon is Illuminated
Dec 20
Waning Gibbous
Dec 25
Last Quarter
Jan 1
New
Jan 7
First Quarter
Jan 15
Full

Hourly Weather History & Observations

Time (HST) Temp. Heat Index Dew Point Humidity Pressure Visibility Wind Dir Wind Speed Gust Speed Precip Events Conditions
12:56 AM 69.1 °F - 63.0 °F 81% 30.03 in 10.0 mi Calm Calm - N/A   Scattered Clouds
1:56 AM 71.1 °F - 64.0 °F 78% 30.03 in 10.0 mi ESE 3.5 mph - N/A   Overcast
2:56 AM 71.1 °F - 64.0 °F 78% 30.03 in 10.0 mi East 8.1 mph - N/A   Mostly Cloudy
3:56 AM 70.0 °F - 64.0 °F 81% 30.02 in 10.0 mi East 3.5 mph - N/A   Scattered Clouds
4:56 AM 69.1 °F - 62.1 °F 78% 30.01 in 10.0 mi SE 3.5 mph - N/A   Clear
5:53 AM 66.2 °F - 62.6 °F 88% 30.00 in 6.2 mi ENE 4.6 mph - N/A   Partly Cloudy
5:56 AM 66.9 °F - 63.0 °F 87% 30.01 in 10.0 mi ENE 5.8 mph - N/A   Partly Cloudy
6:56 AM 68.0 °F - 63.0 °F 84% 30.02 in 10.0 mi East 3.5 mph - N/A   Clear
7:56 AM 69.1 °F - 63.0 °F 81% 30.04 in 10.0 mi East 4.6 mph - N/A   Clear
8:56 AM 75.0 °F - 66.9 °F 76% 30.04 in 10.0 mi Calm Calm - N/A   Clear
9:56 AM 78.1 °F - 69.1 °F 74% 30.04 in 5.0 mi SSW 6.9 mph - N/A   Haze
10:03 AM 77.0 °F - 69.8 °F 78% 30.04 in 6.0 mi SSW 4.6 mph - N/A   Haze
10:12 AM 78.8 °F - 69.8 °F 74% 30.04 in 6.2 mi SW 5.8 mph - N/A   Scattered Clouds
10:56 AM 78.1 °F - 66.9 °F 68% 30.04 in 10.0 mi West 3.5 mph - N/A   Clear
11:52 AM 78.8 °F - 66.2 °F 65% 30.01 in 5.0 mi NW 4.6 mph - N/A   Haze
11:56 AM 78.1 °F - 66.9 °F 68% 30.02 in 5.0 mi NW 4.6 mph - N/A   Haze
12:26 PM 82.4 °F 86.3 °F 69.8 °F 66% 30.00 in 10.0 mi SE 6.9 mph - N/A   Overcast
12:56 PM 79.0 °F - 66.9 °F 66% 30.00 in 10.0 mi North 3.5 mph - N/A   Overcast
1:19 PM 78.8 °F - 66.2 °F 65% 29.99 in 10.0 mi NNW 5.8 mph - N/A   Overcast
1:42 PM 78.8 °F - 66.2 °F 65% 29.99 in 6.2 mi WNW 4.6 mph - N/A   Overcast
1:56 PM 79.0 °F - 66.9 °F 66% 29.99 in 9.0 mi North 4.6 mph - N/A   Overcast
2:07 PM 78.8 °F - 66.2 °F 65% 29.98 in 6.2 mi NW 5.8 mph - N/A   Mostly Cloudy
2:14 PM 78.8 °F - 66.2 °F 65% 29.98 in 6.2 mi NNW 4.6 mph - N/A   Mostly Cloudy
2:21 PM 78.8 °F - 68.0 °F 69% 29.98 in 6.2 mi NNW 5.8 mph - N/A   Mostly Cloudy
2:29 PM 80.6 °F 83.2 °F 68.0 °F 65% 29.98 in 6.2 mi NNW 3.5 mph - N/A   Mostly Cloudy
2:56 PM 80.1 °F 82.3 °F 66.9 °F 64% 29.99 in 10.0 mi NNW 4.6 mph - N/A   Overcast
3:29 PM 78.8 °F - 66.2 °F 65% 29.98 in 10.0 mi NNW 4.6 mph - N/A   Overcast
3:56 PM 78.1 °F - 66.9 °F 68% 29.99 in 9.0 mi Calm Calm - N/A   Overcast
4:17 PM 78.8 °F - 66.2 °F 65% 29.99 in 10.0 mi NW 4.6 mph - N/A   Overcast
4:39 PM 78.8 °F - 66.2 °F 65% 29.99 in 6.2 mi NW 4.6 mph - N/A   Mostly Cloudy
4:56 PM 79.0 °F - 66.0 °F 64% 30.00 in 10.0 mi NNW 5.8 mph - N/A   Scattered Clouds
5:56 PM 77.0 °F - 68.0 °F 74% 30.02 in 8.0 mi Calm Calm - N/A   Mostly Cloudy
6:03 PM 77.0 °F - 68.0 °F 74% 30.01 in 6.0 mi Calm Calm - N/A   Haze
6:56 PM 75.0 °F - 68.0 °F 79% 30.04 in 6.0 mi Calm Calm - N/A   Haze
7:56 PM 72.0 °F - 66.9 °F 84% 30.04 in 10.0 mi Calm Calm - N/A   Clear
8:56 PM 71.1 °F - 66.9 °F 87% 30.04 in 10.0 mi ENE 3.5 mph - N/A   Partly Cloudy
9:56 PM 71.1 °F - 68.0 °F 90% 30.05 in 10.0 mi Calm Calm - N/A   Partly Cloudy
10:56 PM 70.0 °F - 64.0 °F 81% 30.04 in 10.0 mi East 5.8 mph - N/A   Clear
11:56 PM 70.0 °F - 64.0 °F 81% 30.03 in 10.0 mi East 4.6 mph - N/A   Clear